Home   Weather   Rockhampton   Past weeks

Flag for Australia Past Weather in Rockhampton, Queensland, Australia — Yesterday and Last 2 Weeks

Now
57 °F

Sunny.


Feels Like: 57 °F
Forecast: 53 / 84 °F
Wind: 3 mph from North

Location: Rockhampton Airport

Current Time: Oct 1, 2016 at 8:06:45 AM

Latest Report: Oct 1, 2016 at 7:00 AM


Visibility: N/A

Pressure: 29.95 "Hg

Humidity: 82%

Dew Point: 52 °F

Location of RockhamptonLocation

Past Weather in Rockhampton — Graph

°F

Rockhampton Temperature Yesterday

Maximum temperature yesterday: 82 °F (at 2:30 PM)
Minimum temperature yesterday: 57 °F (at 11:00 PM)
Average temperature yesterday: 73 °F

High & Low Weather Summary for the Past Weeks

 TemperatureHumidityPressure
High93 °F (Sep 25, 3:00 PM)100% (Sep 17, 1:00 AM)30.15 "Hg (Sep 17, 1:00 AM)
Low52 °F (Oct 1, 4:00 AM)16% (Sep 26, 4:30 PM)29.71 "Hg (Sep 25, 2:00 PM)
Average73 °F64%29.92 "Hg
* Reported Sep 16 7:00 AM — Oct 1 7:00 AM, Rockhampton, Weather by CustomWeather, © 2016

Note: Actual official high and low records may vary slightly from our data, if they occured in-between our weather recording intervals... More about our weather records

Advertising

Rockhampton Weather History for the Previous 24 Hours

Scroll right to see more
 ConditionsComfort  
Time TempWeatherWind HumidityBarometerVisibility
7:00 AM
Sat, Oct 1
57 °FSunny.3 mph82%29.95 "HgN/A
6:00 AM52 °FSunny.5 mph94%29.95 "HgN/A
5:00 AM52 °FClear.3 mph100%29.89 "HgN/A
4:00 AM52 °FClear.2 mph94%29.86 "HgN/A
3:30 AM54 °FClear.No wind88%29.86 "HgN/A
3:00 AM55 °FClear.3 mph82%29.86 "HgN/A
2:30 AM55 °FClear.No wind88%29.86 "HgN/A
2:00 AM54 °FClear.1 mph94%29.86 "HgN/A
1:30 AM55 °FClear.No wind88%29.86 "HgN/A
1:00 AM55 °FClear.No wind88%29.86 "HgN/A
12:00 AM57 °FClear.3 mph77%29.86 "HgN/A
11:30 PM
Fri, Sep 30
59 °FClear.No wind72%29.89 "HgN/A
11:00 PM57 °FClear.No wind77%29.86 "HgN/A
10:00 PM61 °FClear.No wind68%29.89 "HgN/A
9:30 PM61 °FClear.No wind68%29.89 "HgN/A
9:00 PM64 °FClear.No wind60%29.86 "HgN/A
8:30 PM64 °FClear.1 mph56%29.86 "HgN/A
8:00 PM66 °FClear.5 mph46%29.86 "HgN/A
7:30 PM70 °FClear.5 mph38%29.83 "HgN/A
7:00 PM72 °FClear.6 mph33%29.83 "HgN/A
6:30 PM73 °FClear.7 mph27%29.80 "HgN/A
6:00 PM75 °FClear.3 mph29%29.80 "HgN/A
5:00 PM79 °FSunny.9 mph21%29.77 "Hg10 mi
4:30 PM81 °FSunny.10 mph18%29.77 "Hg10 mi
4:00 PM81 °FSunny.14 mph17%29.77 "Hg10 mi
3:30 PM81 °FSunny.14 mph18%29.77 "Hg10 mi
3:00 PM81 °FSunny.16 mph16%29.77 "Hg10 mi
2:30 PM82 °FSunny.15 mph17%29.77 "Hg10 mi
2:00 PM81 °FSunny.16 mph18%29.77 "Hg10 mi
1:30 PM81 °FSunny.16 mph18%29.80 "Hg10 mi
1:00 PM81 °FSunny.16 mph20%29.80 "Hg10 mi
12:00 PM79 °FSunny.14 mph23%29.83 "Hg10 mi
11:30 AM77 °FSunny.16 mph28%29.83 "Hg10 mi
11:00 AM77 °FSunny.15 mph34%29.86 "Hg10 mi
10:30 AM77 °FSunny.14 mph42%29.86 "Hg10 mi
10:00 AM73 °FPassing clouds.14 mph47%29.86 "HgN/A
9:30 AM73 °FPassing clouds.15 mph47%29.86 "HgN/A
9:00 AM72 °FPassing clouds.15 mph53%29.83 "HgN/A
8:30 AM73 °FPassing clouds.17 mph61%29.83 "HgN/A
8:00 AM73 °FPassing clouds.15 mph61%29.83 "HgN/A
Weather by CustomWeather, © 2016

See weather overviewHow to use our weather pages